Location: Grand Rapids
(42.9630°N, 85.6680°W)
Time: 01:41:17
(UTC-04:00)

A-11 Canister half - Pass Details

Date: 02 June 2024
Orbit: 1524 x 1684 km, 47.3° (Epoch: 21 June)

Event Time Altitude Azimuth Distance (km) Brightness Sun altitude
Rises 03:19:11 0° 294° (WNW) 4,755 11.6 -20.9°
Reaches altitude 10° 03:22:37 10° 286° (WNW) 3,790 11.0 -20.7°
Maximum altitude 03:30:47 33° 227° (SW) 2,489 9.6 -20.0°
Enters shadow 03:33:52 27° 197° (SSW) 2,732 9.7 -19.8°
Drops below altitude 10° 03:39:10 10° 169° (S) 3,884 - -19.3°
Sets 03:42:46 0° 160° (SSE) 4,887 - -19.0°
